DIMKR EDHE-EHHV

Flight info

Callsign DIMKR
Flight time 1h 6m
Altitude 4000
Route VFR
Aircraft P212/L-S/L

Departure

Time 2026-04-29 18:35
Airport Uetersen-Heist Airfield (EDHE)

Arrival

Time 2026-04-29 19:42
Airport Hilversum Airfield (EHHV)
Time Latitude Longitude Altitude Speed Heading
2026-04-29 18:18 53.64502 9.70495 26 ft 0 kts 285°
2026-04-29 18:29 53.64503 9.70489 24 ft 0 kts 303°
2026-04-29 18:29 53.64504 9.70487 24 ft 1 kts 328°
2026-04-29 18:29 53.64532 9.70492 24 ft 8 kts 10°
2026-04-29 18:29 53.64571 9.70485 26 ft 5 kts 281°
2026-04-29 18:30 53.64577 9.70413 25 ft 8 kts 274°
2026-04-29 18:30 53.64582 9.70287 25 ft 14 kts 274°
2026-04-29 18:30 53.64590 9.70092 25 ft 20 kts 274°
2026-04-29 18:30 53.64601 9.69841 25 ft 23 kts 273°
2026-04-29 18:31 53.64615 9.69555 25 ft 19 kts 279°
2026-04-29 18:31 53.64627 9.69487 27 ft 0 kts 329°
2026-04-29 18:33 53.64640 9.69474 25 ft 6 kts 329°
2026-04-29 18:34 53.64689 9.69479 25 ft 5 kts 75°
2026-04-29 18:34 53.64690 9.69492 27 ft 0 kts 91°
2026-04-29 18:34 53.64675 9.69918 24 ft 67 kts 92°
2026-04-29 18:34 53.64628 9.70888 215 ft 91 kts 95°
2026-04-29 18:35 53.64532 9.72057 488 ft 102 kts 103°
2026-04-29 18:35 53.63987 9.72866 770 ft 122 kts 168°
2026-04-29 18:35 53.63156 9.72454 1070 ft 133 kts 220°
2026-04-29 18:35 53.62854 9.71041 1399 ft 131 kts 278°
2026-04-29 18:36 53.62929 9.69461 1665 ft 139 kts 276°
2026-04-29 18:36 53.62977 9.67833 2067 ft 138 kts 275°
2026-04-29 18:36 53.62800 9.66188 2283 ft 154 kts 251°
2026-04-29 18:36 53.62349 9.64439 2323 ft 168 kts 245°
2026-04-29 18:37 53.61876 9.62613 2365 ft 175 kts 247°
2026-04-29 18:37 53.61345 9.60725 2365 ft 177 kts 240°
2026-04-29 18:37 53.60680 9.58952 2372 ft 180 kts 233°
2026-04-29 18:37 53.59980 9.57204 2329 ft 181 kts 248°
2026-04-29 18:38 53.59676 9.55174 2338 ft 178 kts 255°
2026-04-29 18:38 53.59195 9.53255 2335 ft 179 kts 242°
2026-04-29 18:38 53.58603 9.51425 2340 ft 177 kts 243°
2026-04-29 18:38 53.58057 9.49568 2346 ft 179 kts 245°
2026-04-29 18:39 53.57506 9.47638 2321 ft 185 kts 243°
2026-04-29 18:39 53.56950 9.45746 2420 ft 176 kts 244°
2026-04-29 18:39 53.56415 9.43936 2503 ft 171 kts 243°
2026-04-29 18:39 53.55901 9.42169 2598 ft 172 kts 244°
2026-04-29 18:40 53.55371 9.40365 2688 ft 171 kts 243°
2026-04-29 18:40 53.54862 9.38594 2798 ft 171 kts 245°
2026-04-29 18:40 53.54345 9.36805 2887 ft 169 kts 243°
2026-04-29 18:40 53.53811 9.35053 2993 ft 168 kts 243°
2026-04-29 18:41 53.52250 9.29719 3314 ft 168 kts 245°
2026-04-29 18:41 53.51737 9.27975 3429 ft 166 kts 244°
2026-04-29 18:42 53.51222 9.26225 3554 ft 169 kts 244°
2026-04-29 18:42 53.50708 9.24438 3670 ft 170 kts 244°
2026-04-29 18:42 53.50177 9.22662 3782 ft 170 kts 244°
2026-04-29 18:42 53.49653 9.20883 3905 ft 170 kts 244°
2026-04-29 18:43 53.49122 9.19087 3985 ft 175 kts 243°
2026-04-29 18:43 53.48567 9.17225 3993 ft 181 kts 243°
2026-04-29 18:43 53.48006 9.15324 4001 ft 183 kts 243°
2026-04-29 18:43 53.47437 9.13401 4002 ft 185 kts 243°
2026-04-29 18:44 53.46854 9.11469 4002 ft 185 kts 243°
2026-04-29 18:44 53.46282 9.09525 3996 ft 188 kts 245°
2026-04-29 18:44 53.45711 9.07557 4000 ft 188 kts 243°
2026-04-29 18:44 53.45126 9.05641 3994 ft 178 kts 243°
2026-04-29 18:45 53.44593 9.03834 3980 ft 170 kts 244°
2026-04-29 18:45 53.44064 9.02032 3976 ft 175 kts 242°
2026-04-29 18:45 53.43506 9.00184 3981 ft 180 kts 244°
2026-04-29 18:45 53.42954 8.98278 3992 ft 184 kts 244°
2026-04-29 18:46 53.42392 8.96403 3994 ft 187 kts 243°
2026-04-29 18:46 53.41822 8.94494 3993 ft 189 kts 244°
2026-04-29 18:46 53.41236 8.92475 4002 ft 190 kts 243°
2026-04-29 18:46 53.40626 8.90515 3994 ft 189 kts 241°
2026-04-29 18:47 53.40021 8.88566 3998 ft 189 kts 243°
2026-04-29 18:47 53.39452 8.86606 3992 ft 189 kts 243°
2026-04-29 18:47 53.38854 8.84641 3988 ft 189 kts 243°
2026-04-29 18:47 53.38266 8.82672 3990 ft 189 kts 243°
2026-04-29 18:48 53.37693 8.80688 3991 ft 189 kts 243°
2026-04-29 18:48 53.37099 8.78700 3983 ft 190 kts 242°
2026-04-29 18:48 53.36502 8.76740 3991 ft 188 kts 242°
2026-04-29 18:48 53.35911 8.74757 3984 ft 192 kts 243°
2026-04-29 18:49 53.35318 8.72764 3986 ft 191 kts 243°
2026-04-29 18:49 53.34718 8.70779 3981 ft 190 kts 242°
2026-04-29 18:49 53.34118 8.68810 3986 ft 190 kts 242°
2026-04-29 18:49 53.33528 8.66817 3993 ft 192 kts 244°
2026-04-29 18:50 53.32944 8.64816 3982 ft 189 kts 243°
2026-04-29 18:50 53.32344 8.62875 3977 ft 186 kts 241°
2026-04-29 18:50 53.31756 8.60941 3977 ft 185 kts 242°
2026-04-29 18:50 53.31167 8.59035 3983 ft 185 kts 242°
2026-04-29 18:51 53.30583 8.57096 3972 ft 187 kts 243°
2026-04-29 18:51 53.29999 8.55155 3964 ft 186 kts 242°
2026-04-29 18:51 53.29417 8.53225 3975 ft 186 kts 243°
2026-04-29 18:51 53.28851 8.51291 3974 ft 184 kts 243°
2026-04-29 18:52 53.28256 8.49403 3974 ft 184 kts 242°
2026-04-29 18:52 53.27677 8.47530 3973 ft 183 kts 243°
2026-04-29 18:52 53.27107 8.45635 3975 ft 182 kts 243°
2026-04-29 18:52 53.26520 8.43721 3984 ft 183 kts 242°
2026-04-29 18:53 53.25949 8.41836 3983 ft 184 kts 242°
2026-04-29 18:53 53.25357 8.39931 3984 ft 185 kts 242°
2026-04-29 18:53 53.24777 8.38011 3971 ft 184 kts 243°
2026-04-29 18:53 53.24202 8.36118 3967 ft 182 kts 242°
2026-04-29 18:54 53.23633 8.34251 3974 ft 180 kts 243°
2026-04-29 18:54 53.23063 8.32379 3976 ft 180 kts 242°
2026-04-29 18:54 53.22473 8.30510 3976 ft 184 kts 242°
2026-04-29 18:54 53.21895 8.28602 3974 ft 185 kts 244°
2026-04-29 18:55 53.21337 8.26679 3976 ft 184 kts 242°
2026-04-29 18:55 53.20731 8.24789 3968 ft 185 kts 241°
2026-04-29 18:55 53.20144 8.22883 3973 ft 184 kts 242°
2026-04-29 18:55 53.19563 8.20990 3973 ft 183 kts 242°
2026-04-29 18:56 53.18979 8.19113 3970 ft 182 kts 242°
2026-04-29 18:56 53.18403 8.17215 3977 ft 186 kts 242°
2026-04-29 18:56 53.17812 8.15306 3989 ft 185 kts 242°
2026-04-29 18:56 53.17228 8.13382 3987 ft 186 kts 243°
2026-04-29 18:57 53.16629 8.11461 3989 ft 188 kts 242°
2026-04-29 18:57 53.16016 8.09530 3980 ft 188 kts 241°
2026-04-29 18:57 53.15422 8.07593 3982 ft 187 kts 242°
2026-04-29 18:57 53.14836 8.05676 3989 ft 185 kts 242°
2026-04-29 18:58 53.14247 8.03763 3977 ft 185 kts 241°
2026-04-29 18:58 53.13649 8.01867 3975 ft 185 kts 242°
2026-04-29 18:58 53.13066 7.99961 3975 ft 184 kts 242°
2026-04-29 18:58 53.12476 7.98077 3978 ft 183 kts 242°
2026-04-29 18:59 53.11896 7.96200 3976 ft 183 kts 242°
2026-04-29 18:59 53.11326 7.94300 3977 ft 183 kts 242°
2026-04-29 18:59 53.10741 7.92409 3981 ft 184 kts 242°
2026-04-29 18:59 53.10157 7.90512 3986 ft 185 kts 242°
2026-04-29 19:00 53.09557 7.88603 3983 ft 187 kts 241°
2026-04-29 19:00 53.08945 7.86709 3976 ft 185 kts 241°
2026-04-29 19:00 53.08348 7.84817 3978 ft 184 kts 242°
2026-04-29 19:00 53.07774 7.82911 3976 ft 185 kts 242°
2026-04-29 19:01 53.07166 7.81016 3980 ft 186 kts 240°
2026-04-29 19:01 53.06567 7.79113 3980 ft 186 kts 242°
2026-04-29 19:01 53.05966 7.77199 3973 ft 187 kts 242°
2026-04-29 19:01 53.05384 7.75275 3977 ft 186 kts 241°
2026-04-29 19:02 53.04778 7.73385 3972 ft 186 kts 240°
2026-04-29 19:02 53.04361 7.72103 3974 ft 187 kts 240°
2026-04-29 19:02 53.03567 7.69552 3977 ft 187 kts 243°
2026-04-29 19:02 53.02975 7.67638 3971 ft 185 kts 241°
2026-04-29 19:03 53.02366 7.65759 3972 ft 184 kts 241°
2026-04-29 19:03 53.01778 7.63875 3967 ft 184 kts 242°
2026-04-29 19:03 53.01204 7.61980 3963 ft 184 kts 241°
2026-04-29 19:03 53.00608 7.60103 3961 ft 185 kts 240°
2026-04-29 19:04 53.00010 7.58211 3950 ft 186 kts 240°
2026-04-29 19:04 52.99394 7.56295 3953 ft 185 kts 240°
2026-04-29 19:04 52.98788 7.54387 3962 ft 188 kts 241°
2026-04-29 19:04 52.98185 7.52472 3956 ft 187 kts 240°
2026-04-29 19:05 52.97584 7.50596 3955 ft 187 kts 240°
2026-04-29 19:05 52.96995 7.48672 3968 ft 188 kts 242°
2026-04-29 19:05 52.96376 7.46755 3961 ft 188 kts 239°
2026-04-29 19:05 52.95764 7.44838 3966 ft 188 kts 242°
2026-04-29 19:06 52.95176 7.42911 3957 ft 187 kts 240°
2026-04-29 19:06 52.94565 7.41010 3958 ft 186 kts 239°
2026-04-29 19:06 52.93354 7.37241 3945 ft 186 kts 240°
2026-04-29 19:07 52.92757 7.35336 3947 ft 186 kts 241°
2026-04-29 19:07 52.92355 7.34082 3939 ft 185 kts 240°
2026-04-29 19:07 52.91547 7.31565 3944 ft 185 kts 239°
2026-04-29 19:07 52.90935 7.29683 3941 ft 186 kts 242°
2026-04-29 19:08 52.90342 7.27774 3946 ft 187 kts 241°
2026-04-29 19:08 52.89741 7.25875 3947 ft 185 kts 240°
2026-04-29 19:08 52.89127 7.24008 3946 ft 185 kts 240°
2026-04-29 19:08 52.88524 7.22134 3944 ft 184 kts 241°
2026-04-29 19:09 52.87949 7.20271 3938 ft 185 kts 242°
2026-04-29 19:09 52.87350 7.18389 3945 ft 184 kts 240°
2026-04-29 19:09 52.86729 7.16528 3945 ft 185 kts 240°
2026-04-29 19:09 52.86127 7.14648 3946 ft 185 kts 241°
2026-04-29 19:10 52.85527 7.12758 3945 ft 186 kts 240°
2026-04-29 19:10 52.84905 7.10870 3946 ft 187 kts 240°
2026-04-29 19:10 52.84295 7.08975 3956 ft 187 kts 241°
2026-04-29 19:10 52.83689 7.07062 3949 ft 188 kts 240°
2026-04-29 19:11 52.83066 7.05158 3947 ft 188 kts 239°
2026-04-29 19:11 52.82449 7.03264 3958 ft 188 kts 240°
2026-04-29 19:11 52.81815 7.01366 3934 ft 188 kts 239°
2026-04-29 19:11 52.81213 6.99439 3943 ft 189 kts 241°
2026-04-29 19:12 52.80611 6.97520 3951 ft 188 kts 239°
2026-04-29 19:12 52.79982 6.95627 3949 ft 188 kts 239°
2026-04-29 19:12 52.79356 6.93734 3948 ft 187 kts 239°
2026-04-29 19:12 52.79160 6.93120 3985 ft 185 kts 240°
2026-04-29 19:13 52.78142 6.89954 3992 ft 187 kts 239°
2026-04-29 19:13 52.77527 6.88062 3993 ft 187 kts 239°
2026-04-29 19:13 52.76922 6.86196 3992 ft 187 kts 240°
2026-04-29 19:13 52.76314 6.84301 3998 ft 187 kts 239°
2026-04-29 19:14 52.75694 6.82408 3989 ft 188 kts 239°
2026-04-29 19:14 52.75072 6.80521 3991 ft 187 kts 239°
2026-04-29 19:14 52.74454 6.78634 3985 ft 187 kts 239°
2026-04-29 19:14 52.73835 6.76744 3987 ft 187 kts 240°
2026-04-29 19:15 52.73227 6.74846 3987 ft 187 kts 240°
2026-04-29 19:15 52.72611 6.72954 3985 ft 188 kts 239°
2026-04-29 19:15 52.71989 6.71056 3988 ft 189 kts 240°
2026-04-29 19:15 52.71379 6.69138 3989 ft 188 kts 240°
2026-04-29 19:16 52.70754 6.67238 3994 ft 189 kts 239°
2026-04-29 19:16 52.70121 6.65336 3994 ft 189 kts 239°
2026-04-29 19:16 52.69495 6.63426 3994 ft 189 kts 239°
2026-04-29 19:16 52.68876 6.61515 4000 ft 188 kts 239°
2026-04-29 19:17 52.68241 6.59631 4001 ft 188 kts 239°
2026-04-29 19:17 52.67616 6.57724 3992 ft 190 kts 240°
2026-04-29 19:17 52.66979 6.55794 3991 ft 194 kts 239°
2026-04-29 19:17 52.66323 6.53859 3995 ft 194 kts 239°
2026-04-29 19:18 52.65688 6.51896 3995 ft 194 kts 240°
2026-04-29 19:18 52.65485 6.51261 3994 ft 193 kts 240°
2026-04-29 19:18 52.64437 6.48064 3992 ft 189 kts 239°
2026-04-29 19:18 52.63806 6.46172 3990 ft 188 kts 238°
2026-04-29 19:19 52.63177 6.44290 3984 ft 188 kts 239°
2026-04-29 19:19 52.62563 6.42390 3980 ft 188 kts 239°
2026-04-29 19:19 52.62137 6.41123 3982 ft 187 kts 238°
2026-04-29 19:19 52.61510 6.39275 3983 ft 186 kts 239°
2026-04-29 19:20 52.60911 6.37384 3978 ft 186 kts 240°
2026-04-29 19:20 52.60265 6.35541 3980 ft 184 kts 230°
2026-04-29 19:20 52.59439 6.33941 3986 ft 184 kts 224°
2026-04-29 19:20 52.58593 6.32350 3975 ft 185 kts 225°
2026-04-29 19:21 52.57778 6.30749 3975 ft 185 kts 226°
2026-04-29 19:21 52.56947 6.29132 3955 ft 187 kts 225°
2026-04-29 19:21 52.56087 6.27465 3713 ft 194 kts 226°
2026-04-29 19:21 52.55203 6.25774 3478 ft 196 kts 226°
2026-04-29 19:22 52.54313 6.24068 3247 ft 196 kts 226°
2026-04-29 19:22 52.53451 6.22409 3008 ft 191 kts 226°
2026-04-29 19:22 52.52570 6.20761 2755 ft 188 kts 224°
2026-04-29 19:22 52.51709 6.19142 2503 ft 187 kts 225°
2026-04-29 19:23 52.50886 6.17592 2467 ft 174 kts 224°
2026-04-29 19:23 52.50084 6.16134 2459 ft 171 kts 224°
2026-04-29 19:23 52.49288 6.14679 2462 ft 172 kts 223°
2026-04-29 19:23 52.48414 6.13322 2459 ft 175 kts 216°
2026-04-29 19:24 52.47472 6.12011 2464 ft 175 kts 215°
2026-04-29 19:24 52.46568 6.10707 2471 ft 177 kts 218°
2026-04-29 19:24 52.45610 6.09353 2465 ft 180 kts 217°
2026-04-29 19:24 52.44663 6.08014 2466 ft 178 kts 217°
2026-04-29 19:25 52.43730 6.06704 2474 ft 176 kts 216°
2026-04-29 19:25 52.42814 6.05402 2473 ft 177 kts 218°
2026-04-29 19:25 52.41868 6.04062 2462 ft 177 kts 214°
2026-04-29 19:25 52.40903 6.02836 2453 ft 175 kts 212°
2026-04-29 19:26 52.39936 6.01619 2452 ft 176 kts 213°
2026-04-29 19:26 52.38966 6.00391 2454 ft 177 kts 213°
2026-04-29 19:26 52.37994 5.99140 2451 ft 178 kts 212°
2026-04-29 19:26 52.37030 5.97882 2462 ft 177 kts 213°
2026-04-29 19:27 52.36069 5.96628 2463 ft 176 kts 213°
2026-04-29 19:27 52.35105 5.95419 2466 ft 179 kts 213°
2026-04-29 19:27 52.34143 5.94118 2458 ft 181 kts 222°
2026-04-29 19:27 52.33597 5.92267 2446 ft 185 kts 264°
2026-04-29 19:28 52.33675 5.90195 2454 ft 181 kts 275°
2026-04-29 19:28 52.33466 5.88190 2447 ft 179 kts 247°
2026-04-29 19:28 52.32991 5.86316 2443 ft 178 kts 248°
2026-04-29 19:28 52.32618 5.84375 2441 ft 181 kts 254°
2026-04-29 19:29 52.32266 5.82399 2448 ft 181 kts 252°
2026-04-29 19:29 52.31882 5.80442 2460 ft 181 kts 251°
2026-04-29 19:29 52.31496 5.78462 2459 ft 183 kts 251°
2026-04-29 19:29 52.31123 5.76461 2397 ft 188 kts 252°
2026-04-29 19:30 52.30742 5.74373 2163 ft 194 kts 253°
2026-04-29 19:30 52.30350 5.72274 1921 ft 192 kts 252°
2026-04-29 19:30 52.29942 5.70211 1703 ft 190 kts 252°
2026-04-29 19:30 52.29546 5.68167 1452 ft 189 kts 253°
2026-04-29 19:31 52.29167 5.66139 1354 ft 183 kts 252°
2026-04-29 19:31 52.28803 5.64210 1346 ft 174 kts 252°
2026-04-29 19:31 52.28437 5.62370 1355 ft 168 kts 252°
2026-04-29 19:31 52.28096 5.60566 1352 ft 165 kts 253°
2026-04-29 19:32 52.27755 5.58783 1352 ft 163 kts 253°
2026-04-29 19:32 52.27416 5.57027 1355 ft 161 kts 252°
2026-04-29 19:32 52.27070 5.55262 1353 ft 164 kts 252°
2026-04-29 19:32 52.26748 5.53543 1359 ft 167 kts 254°
2026-04-29 19:33 52.26420 5.51710 1352 ft 168 kts 251°
2026-04-29 19:33 52.26056 5.49910 1356 ft 167 kts 250°
2026-04-29 19:33 52.25688 5.48094 1354 ft 170 kts 251°
2026-04-29 19:33 52.25337 5.46242 1353 ft 172 kts 252°
2026-04-29 19:34 52.24975 5.44383 1351 ft 172 kts 250°
2026-04-29 19:34 52.24622 5.42554 1352 ft 166 kts 252°
2026-04-29 19:34 52.24285 5.40775 1346 ft 162 kts 251°
2026-04-29 19:34 52.23941 5.39025 1347 ft 164 kts 252°
2026-04-29 19:35 52.23598 5.37234 1351 ft 167 kts 253°
2026-04-29 19:35 52.23251 5.35409 1347 ft 169 kts 252°
2026-04-29 19:35 52.22887 5.33610 1354 ft 166 kts 252°
2026-04-29 19:35 52.22547 5.31806 1342 ft 166 kts 253°
2026-04-29 19:36 52.22205 5.30056 1333 ft 159 kts 252°
2026-04-29 19:36 52.21882 5.28378 1331 ft 153 kts 252°
2026-04-29 19:36 52.21552 5.26736 1305 ft 152 kts 251°
2026-04-29 19:36 52.21232 5.25112 1308 ft 149 kts 250°
2026-04-29 19:37 52.20919 5.23513 1310 ft 147 kts 251°
2026-04-29 19:37 52.20712 5.22448 1310 ft 144 kts 251°
2026-04-29 19:37 52.20325 5.20471 1197 ft 138 kts 250°
2026-04-29 19:37 52.19878 5.19131 1096 ft 131 kts 221°
2026-04-29 19:38 52.19156 5.18357 922 ft 120 kts 186°
2026-04-29 19:38 52.18378 5.18051 823 ft 111 kts 185°
2026-04-29 19:38 52.17650 5.17682 785 ft 109 kts 188°
2026-04-29 19:38 52.16952 5.17207 693 ft 112 kts 210°
2026-04-29 19:39 52.16627 5.16019 708 ft 126 kts 279°
2026-04-29 19:39 52.17113 5.15066 705 ft 103 kts
2026-04-29 19:39 52.17683 5.15265 746 ft 81 kts 36°
2026-04-29 19:39 52.18241 5.14924 621 ft 117 kts 300°
2026-04-29 19:40 52.18004 5.13744 561 ft 115 kts 214°
2026-04-29 19:40 52.17485 5.12835 547 ft 107 kts 225°
2026-04-29 19:40 52.17394 5.11714 501 ft 99 kts 311°
2026-04-29 19:40 52.17892 5.11291 470 ft 80 kts 14°
2026-04-29 19:41 52.18402 5.11602 349 ft 79 kts 57°
2026-04-29 19:41 52.18640 5.12294 242 ft 62 kts 69°
2026-04-29 19:41 52.18809 5.12911 143 ft 67 kts 69°
2026-04-29 19:41 52.18989 5.13646 80 ft 65 kts 70°
2026-04-29 19:42 52.19133 5.14258 11 ft 47 kts 68°
2026-04-29 19:42 52.19202 5.14533 10 ft 34 kts 67°
2026-04-29 19:42 52.19290 5.14878 7 ft 16 kts 70°
2026-04-29 19:42 52.19315 5.15020 6 ft 12 kts 99°
2026-04-29 19:43 52.19274 5.15100 9 ft 7 kts 144°
2026-04-29 19:43 52.19247 5.15164 9 ft 6 kts 137°
2026-04-29 19:43 52.19231 5.15172 9 ft 0 kts 208°